Fecha;EUA;CER;SPREAD (EUA - CER)
02-01-2013;6.20;0.18;"6,02"
03-01-2013;6.13;0.17;"5,96"
04-01-2013;6.20;0.22;"5,98"
07-01-2013;6.43;0.23;"6,2"
08-01-2013;6.27;0.25;"6,02"
09-01-2013;6.02;0.25;"5,77"
10-01-2013;5.90;0.25;"5,65"
11-01-2013;5.73;0.22;"5,51"
14-01-2013;5.71;0.15;"5,56"
15-01-2013;5.92;0.21;"5,71"
16-01-2013;5.50;0.15;"5,35"
17-01-2013;5.41;0.10;"5,31"
18-01-2013;4.96;0.15;"4,81"
21-01-2013;4.81;0.16;"4,65"
22-01-2013;5.27;0.17;"5,1"
23-01-2013;4.52;0.11;"4,41"
24-01-2013;4.20;0.15;"4,05"
25-01-2013;4.01;0.15;"3,86"
28-01-2013;4.02;0.17;"3,85"
29-01-2013;3.95;0.17;"3,78"
30-01-2013;3.71;0.18;"3,53"
31-01-2013;3.32;0.14;"3,18"
01-02-2013;4.02;0.13;"3,89"
04-02-2013;4.05;0.12;"3,93"
05-02-2013;4.12;0.17;"3,95"
06-02-2013;4.02;0.15;"3,87"
07-02-2013;4.07;0.17;"3,9"
08-02-2013;4.40;0.18;"4,22"
11-02-2013;4.36;0.16;"4,2"
12-02-2013;4.47;0.16;"4,31"
13-02-2013;5.10;0.18;"4,92"
14-02-2013;5.12;0.15;"4,97"
15-02-2013;5.08;0.15;"4,93"
18-02-2013;4.99;0.17;"4,82"
19-02-2013;4.60;0.15;"4,45"
20-02-2013;4.88;0.17;"4,71"
21-02-2013;5.18;0.19;"4,99"
22-02-2013;5.07;0.15;"4,92"
25-02-2013;4.52;0.15;"4,37"
26-02-2013;4.20;0.17;"4,03"
27-02-2013;4.37;0.33;"4,04"
28-02-2013;4.80;0.29;"4,51"
01-03-2013;4.55;0.26;"4,29"
04-03-2013;4.56;0.20;"4,36"
05-03-2013;4.17;0.22;"3,95"
06-03-2013;4.22;0.20;"4,02"
07-03-2013;4.19;0.20;"3,99"
08-03-2013;4.16;0.22;"3,94"
11-03-2013;3.93;0.21;"3,72"
12-03-2013;3.67;0.19;"3,48"
13-03-2013;3.45;0.17;"3,28"
14-03-2013;3.60;0.20;"3,4"
15-03-2013;3.71;0.17;"3,54"
18-03-2013;3.49;0.19;"3,3"
19-03-2013;3.46;0.15;"3,31"
20-03-2013;3.92;0.19;"3,73"
21-03-2013;4.34;0.21;"4,13"
22-03-2013;4.08;0.17;"3,91"
25-03-2013;4.39;0.18;"4,21"
26-03-2013;4.56;0.14;"4,42"
27-03-2013;4.85;0.11;"4,74"
28-03-2013;4.70;0.09;"4,61"
02-04-2013;4.88;0.08;"4,8"
03-04-2013;4.83;0.08;"4,75"
04-04-2013;4.95;0.10;"4,85"
05-04-2013;5.10;0.09;"5,01"
08-04-2013;5.16;0.10;"5,06"
09-04-2013;4.68;0.10;"4,58"
10-04-2013;4.25;0.11;"4,14"
11-04-2013;4.33;0.13;"4,2"
12-04-2013;4.69;0.12;"4,57"
15-04-2013;4.73;0.11;"4,62"
16-04-2013;3.10;0.13;"2,97"
17-04-2013;2.70;0.12;"2,58"
18-04-2013;3.04;0.12;"2,92"
19-04-2013;3.11;0.11;3
22-04-2013;2.80;0.08;"2,72"
23-04-2013;3.05;0.08;"2,97"
24-04-2013;3.06;0.10;"2,96"
25-04-2013;3.02;0.07;"2,95"
26-04-2013;3.05;0.08;"2,97"
29-04-2013;3.28;0.08;"3,2"
30-04-2013;2.90;0.07;"2,83"
01-05-2013;2.88;0.35;"2,53"
02-05-2013;3.03;0.30;"2,73"
03-05-2013;3.76;0.40;"3,36"
06-05-2013;3.85;0.35;"3,5"
07-05-2013;3.63;0.34;"3,29"
08-05-2013;3.46;0.34;"3,12"
09-05-2013;3.74;0.42;"3,32"
10-05-2013;3.32;0.39;"2,93"
13-05-2013;3.23;0.41;"2,82"
14-05-2013;3.48;0.39;"3,09"
15-05-2013;3.57;0.40;"3,17"
16-05-2013;3.66;0.40;"3,26"
17-05-2013;3.49;0.38;"3,11"
20-05-2013;3.55;0.37;"3,18"
21-05-2013;3.50;0.39;"3,11"
22-05-2013;3.29;0.35;"2,94"
23-05-2013;3.35;0.35;3
24-05-2013;3.53;0.36;"3,17"
27-05-2013;3.47;0.38;"3,09"
28-05-2013;3.61;0.39;"3,22"
29-05-2013;3.70;0.39;"3,31"
30-05-2013;3.78;0.42;"3,36"
31-05-2013;3.95;0.42;"3,53"
03-06-2013;3.87;0.43;"3,44"
04-06-2013;3.92;0.42;"3,5"
05-06-2013;3.90;0.40;"3,5"
06-06-2013;3.96;0.40;"3,56"
07-06-2013;4.07;0.42;"3,65"
10-06-2013;4.02;0.42;"3,6"
11-06-2013;4.16;0.42;"3,74"
12-06-2013;4.46;0.44;"4,02"
13-06-2013;4.38;0.46;"3,92"
14-06-2013;4.70;0.48;"4,22"
17-06-2013;4.56;0.48;"4,08"
18-06-2013;4.64;0.47;"4,17"
19-06-2013;4.32;0.48;"3,84"
20-06-2013;4.36;0.50;"3,86"
21-06-2013;4.34;0.48;"3,86"
24-06-2013;4.12;0.49;"3,63"
25-06-2013;4.25;0.49;"3,76"
26-06-2013;4.39;0.48;"3,91"
27-06-2013;4.40;0.49;"3,91"
28-06-2013;4.10;0.52;"3,58"
01-07-2013;4.22;0.55;"3,67"
02-07-2013;4.25;0.52;"3,73"
03-07-2013;4.65;0.58;"4,07"
04-07-2013;4.52;0.55;"3,97"
05-07-2013;4.26;0.53;"3,73"
08-07-2013;4.20;0.55;"3,65"
09-07-2013;4.12;0.52;"3,6"
10-07-2013;4.02;0.60;"3,42"
11-07-2013;4.02;0.60;"3,42"
12-07-2013;4.01;0.61;"3,4"
15-07-2013;4.02;0.56;"3,46"
16-07-2013;4.09;0.56;"3,53"
17-07-2013;4.09;0.57;"3,52"
18-07-2013;4.08;0.52;"3,56"
19-07-2013;4.15;0.52;"3,63"
22-07-2013;4.17;0.53;"3,64"
23-07-2013;4.23;0.55;"3,68"
24-07-2013;4.27;0.58;"3,69"
25-07-2013;4.28;0.58;"3,7"
26-07-2013;4.33;0.56;"3,77"
29-07-2013;4.30;0.57;"3,73"
30-07-2013;4.25;0.57;"3,68"
31-07-2013;4.30;0.57;"3,73"
01-08-2013;4.32;0.60;"3,72"
02-08-2013;4.37;0.57;"3,8"
05-08-2013;4.40;0.64;"3,76"
06-08-2013;4.47;0.66;"3,81"
07-08-2013;4.43;0.61;"3,82"
08-08-2013;4.48;0.62;"3,86"
09-08-2013;4.43;0.64;"3,79"
12-08-2013;4.33;0.64;"3,69"
13-08-2013;4.24;0.65;"3,59"
14-08-2013;4.33;0.62;"3,71"
16-08-2013;4.34;0.61;"3,73"
19-08-2013;4.29;0.62;"3,67"
20-08-2013;4.24;0.62;"3,62"
21-08-2013;4.28;0.60;"3,68"
22-08-2013;4.45;0.60;"3,85"
23-08-2013;4.38;0.60;"3,78"
26-08-2013;4.37;0.62;"3,75"
27-08-2013;4.48;0.61;"3,87"
28-08-2013;4.49;0.60;"3,89"
29-08-2013;4.51;0.60;"3,91"
30-08-2013;4.51;0.62;"3,89"
02-09-2013;4.45;0.62;"3,83"
03-09-2013;4.40;0.60;"3,8"
04-09-2013;4.55;0.58;"3,97"
05-09-2013;4.95;0.59;"4,36"
06-09-2013;5.28;0.60;"4,68"
09-09-2013;5.30;0.62;"4,68"
10-09-2013;5.10;0.62;"4,48"
11-09-2013;5.22;0.63;"4,59"
12-09-2013;5.60;0.65;"4,95"
13-09-2013;5.38;0.68;"4,7"
16-09-2013;5.44;0.70;"4,74"
17-09-2013;5.61;0.72;"4,89"
18-09-2013;5.51;0.72;"4,79"
19-09-2013;5.36;0.70;"4,66"
20-09-2013;5.36;0.71;"4,65"
23-09-2013;5.40;0.70;"4,7"
24-09-2013;5.37;0.69;"4,68"
25-09-2013;5.38;0.68;"4,7"
26-09-2013;5.42;0.69;"4,73"
27-09-2013;5.38;0.64;"4,74"
30-09-2013;5.02;0.66;"4,36"
01-10-2013;5.12;0.65;"4,47"
02-10-2013;5.27;0.68;"4,59"
03-10-2013;5.20;0.68;"4,52"
04-10-2013;5.08;0.69;"4,39"
07-10-2013;4.98;0.66;"4,32"
08-10-2013;4.86;0.62;"4,24"
09-10-2013;4.79;0.60;"4,19"
10-10-2013;4.75;0.55;"4,2"
11-10-2013;4.60;0.62;"3,98"
14-10-2013;4.80;0.53;"4,27"
15-10-2013;4.95;0.48;"4,47"
16-10-2013;5.30;0.56;"4,74"
17-10-2013;5.15;0.54;"4,61"
18-10-2013;5.11;0.60;"4,51"
21-10-2013;4.56;0.55;"4,01"
22-10-2013;4.68;0.51;"4,17"
23-10-2013;4.60;0.50;"4,1"
24-10-2013;4.65;0.53;"4,12"
25-10-2013;4.96;0.55;"4,41"
28-10-2013;4.80;0.55;"4,25"
29-10-2013;5.04;0.54;"4,5"
30-10-2013;4.92;0.51;"4,41"
31-10-2013;4.76;0.50;"4,26"
01-11-2013;4.60;0.50;"4,1"
04-11-2013;4.55;0.49;"4,06"
05-11-2013;4.76;0.49;"4,27"
06-11-2013;4.77;0.51;"4,26"
07-11-2013;4.78;0.54;"4,24"
08-11-2013;4.46;0.51;"3,95"
11-11-2013;4.58;0.49;"4,09"
12-11-2013;4.65;0.50;"4,15"
13-11-2013;4.64;0.52;"4,12"
14-11-2013;4.58;0.49;"4,09"
15-11-2013;4.47;0.42;"4,05"
18-11-2013;4.32;0.33;"3,99"
19-11-2013;4.41;0.38;"4,03"
20-11-2013;4.48;0.34;"4,14"
21-11-2013;4.40;0.33;"4,07"
22-11-2013;4.42;0.35;"4,07"
25-11-2013;4.38;0.34;"4,04"
26-11-2013;4.46;0.33;"4,13"
27-11-2013;4.45;0.33;"4,12"
28-11-2013;4.42;0.33;"4,09"
29-11-2013;4.35;0.31;"4,04"
02-12-2013;4.48;0.32;"4,16"
03-12-2013;4.50;0.33;"4,17"
04-12-2013;4.46;0.33;"4,13"
05-12-2013;4.65;0.32;"4,33"
06-12-2013;4.79;0.35;"4,44"
09-12-2013;4.89;0.35;"4,54"
10-12-2013;4.98;0.40;"4,58"
11-12-2013;4.86;0.41;"4,45"
12-12-2013;4.91;0.41;"4,5"
13-12-2013;4.76;0.41;"4,35"
16-12-2013;4.65;0.42;"4,23"
17-12-2013;4.89;0.41;"4,48"
18-12-2013;4.87;0.40;"4,47"
19-12-2013;4.90;0.38;"4,52"
20-12-2013;4.75;0.36;"4,39"
23-12-2013;4.76;0.34;"4,42"
24-12-2013;4.88;0.33;"4,55"
27-12-2013;4.91;0.34;"4,57"
30-12-2013;4.88;0.32;"4,56"
31-12-2013;4.84;0.32;"4,52"
